Regional Weather Roundup
Issued by NWS

Home | Current Version | Previous Version | Text Only | Print | Product List | Glossary Off
Versions: 1 2 3 4 5 6 7 8 9 10 11 12 13 14 15 16 17 18 19 20 21 22 23 24 25 26 27 28 29 30 31 32 33 34 35 36 37 38 39 40 41 42 43 44 45 46 47 48 49 50

000
ASUS45 KCYS 290910
RWRWY

WYOMING REGIONAL WEATHER ROUNDUP
NATIONAL WEATHER SERVICE CHEYENNE WY
200 AM MST THU JAN 29 2015

NOTE:  "FAIR" INDICATES FEW OR NO CLOUDS BELOW 12,000 FEET
WITH NO SIGNIFICANT WEATHER AND/OR OBSTRUCTIONS TO VISIBILITY.

WYZ001-291000-
YELLOWSTONE NATIONAL PARK

CITY           SKY/WX    TMP DP  RH WIND       PRES   REMARKS
LK YELLOWSTONE   N/A     20  18  92 CALM      30.41R
W YELLOWSTONE  NOT AVBL

$$
WYZ002>013-054>058-071-098>099-291000-
NORTHERN WYOMING

CITY           SKY/WX    TMP DP  RH WIND       PRES   REMARKS
JACKSON        MOCLDY    21  21 100 NE5       30.41R WCI  15
CODY           FAIR      30  28  93 S6        30.39S WCI  24
GREYBULL       CLOUDY    31  31 100 CALM      30.41S FOG
WORLAND        CLOUDY    33  28  81 E3        30.41R
SHERIDAN       FAIR      26  22  84 CALM      30.42S
BUFFALO        FAIR      30  24  78 NW6       30.41R WCI  24
GILLETTE       FAIR      27  20  75 CALM      30.41R
HULETT           N/A    N/A N/A N/A MISG        N/A
NEWCASTLE      FAIR      30  23  74 N16G23    30.38R WCI  19

$$
WYZ014>020-022>026-101>103-291000-
CENTRAL WYOMING

CITY           SKY/WX    TMP DP  RH WIND       PRES   REMARKS
BIG PINEY      FAIR      22  17  81 N10       30.38S WCI  11
PINEDALE       CLOUDY    19  18  93 NW6       30.39S WCI  11
DUBOIS         FAIR      23  19  86 CALM      30.38S
LANDER         CLOUDY    34  29  82 CALM      30.38R
RIVERTON       CLOUDY    35  28  75 NW5       30.40R WCI  31
CASPER         CLOUDY    33  29  85 N3        30.42R
DOUGLAS        CLOUDY    33  24  69 NW7       30.42R WCI  27

$$
WYZ021-027>030-104>119-291000-
SOUTHERN WYOMING

CITY           SKY/WX    TMP DP  RH WIND       PRES   REMARKS
EVANSTON       CLOUDY    31  29  92 N5        30.38S WCI  26
KEMMERER       FAIR      25  23  93 N9        30.38S WCI  15
FORT BRIDGER   FAIR      30  30 100 W7        30.41R WCI  23
ROCK SPRINGS   FAIR      29  27  92 NW5       30.37R WCI  24
DIXON          CLOUDY    34  32  93 CALM      30.38S
RAWLINS        CLOUDY    31  29  92 E8        30.38R WCI  23
SARATOGA       CLOUDY    32  30  93 NW5       30.36S WCI  27
LARAMIE        CLOUDY    28  26  92 CALM      30.36R
CHEYENNE       CLOUDY    35  24  64 N13       30.36R WCI  26
TORRINGTON     FAIR      35  24  64 NW13      30.38R WCI  26
PINE BLUFFS    CLOUDY    36  25  64 N14       30.37R WCI  27

$$


USA.gov is the U.S. government's official web portal to all federal, state and local government web resources and services.